This demonstration page uses our WeatherBlox Daily Observations layout. Learn more.

Left ArrowRight Arrow

44.89941, -97.11507

Hourly Observations for January 25, 2022

Temp ( °F °C ) Dew Point ( °F °C ) Humidity (%) Winds ( mph kmh ) Pressure ( in mb ) Visibility ( mi km ) Precip ( " mm )
12:53 am 00:53 Clear -12 -24.4 -16 -26.7 81 81 NW 7 11 30.34 1027 10 16 0.00 0.00
1:53 am 01:53 Clear -14 -25.6 -18 -27.8 82 82 NW 5 7 30.35 1028 10 16 0.00 0.00
2:53 am 02:53 Clear -11 -23.9 -15 -26.1 82 82 WNW 6 9 30.36 1028 10 16 0.00 0.00
3:53 am 03:53 Clear -12 -24.4 -15 -26.1 86 86 WNW 7 11 30.36 1028 10 16 0.00 0.00
4:53 am 04:53 Clear -13 -25 -16 -26.7 86 86 NNW 3 6 30.38 1029 10 16 0.00 0.00
5:53 am 05:53 Clear -12 -24.4 -16 -26.7 81 81 WNW 7 11 30.42 1030 10 16 0.00 0.00
6:53 am 06:53 Clear -10 -23.3 -14 -25.6 81 81 WNW 5 7 30.44 1031 10 16 0.00 0.00
7:53 am 07:53 Clear -12 -24.4 -17 -27.2 78 78 NW 5 7 30.47 1032 10 16 0.00 0.00
8:53 am 08:53 Sunny -13 -25 -17 -27.2 82 82 WNW 6 9 30.50 1033 10 16 0.00 0.00
9:53 am 09:53 Sunny -10 -23.3 -15 -26.1 78 78 NW 7 11 30.53 1034 10 16 0.00 0.00
10:53 am 10:53 Sunny -8 -22.2 -14 -25.6 74 74 NNW 13 20 30.55 1034 10 16 0.00 0.00
11:53 am 11:53 Sunny -6 -21.1 -13 -25 71 71 NNW 14 22 30.55 1035 10 16 0.00 0.00
12:53 pm 12:53 Sunny -6 -21.1 -13 -25 71 71 NW 9 15 30.55 1034 10 16 0.00 0.00
1:53 pm 13:53 Sunny -5 -20.6 -13 -25 68 68 NW 12 19 30.54 1034 10 16 0.00 0.00
2:53 pm 14:53 Sunny -6 -21.1 -13 -25 71 71 NW 10 17 30.55 1034 10 16 0.00 0.00
3:53 pm 15:53 Sunny -6 -21.1 -13 -25 71 71 WNW 8 13 30.56 1035 10 16 0.00 0.00
4:53 pm 16:53 Sunny -7 -21.7 -14 -25.6 71 71 WNW 7 11 30.58 1036 10 16 0.00 0.00
5:53 pm 17:53 Clear -9 -22.8 -15 -26.1 75 75 Calm 30.58 1036 10 16 0.00 0.00
6:53 pm 18:53 Clear -12 -24.4 -17 -27.2 78 78 Calm 30.58 1036 10 16 0.00 0.00
7:53 pm 19:53 Clear -15 -26.1 -19 -28.3 82 82 S 6 9 30.56 1035 10 16 0.00 0.00
8:53 pm 20:53 Clear -14 -25.6 -17 -27.2 86 86 S 3 6 30.56 1035 10 16 0.00 0.00
9:53 pm 21:53 Clear -15 -26.1 -18 -27.8 86 86 Calm 30.53 1034 10 16 0.00 0.00
10:53 pm 22:53 Clear -14 -25.6 -19 -28.3 78 78 SSE 7 11 30.50 1033 10 16 0.00 0.00
11:53 pm 23:53 Clear -14 -25.6 -18 -27.8 82 82 SSE 7 11 30.47 1032 10 16 0.00 0.00

Powered by AerisWeather